Weather History for Augusta, ME

Change the Weather History Date:

Wednesday, February 26, 2014

  Actual Average Record
Temperature  
Mean Temperature 14 °F -  
Max Temperature 24 °F 32 °F 46 °F (2002)
Min Temperature 5 °F 18 °F -5 °F (2003)
Degree Days  
Heating Degree Days 50    
Moisture  
Dew Point 5 °F    
Average Humidity 65    
Maximum Humidity 84    
Minimum Humidity 42    
Precipitation  
Precipitation 0.00 in - - ()
Sea Level Pressure  
Sea Level Pressure 29.78 in    
Wind  
Wind Speed 6 mph (WSW)    
Max Wind Speed 16 mph    
Max Gust Speed 25 mph    
Visibility 7 miles    
Events Fog , Snow    
Averages and records for this station are not official NWS values.
T = Trace of Precipitation, MM = Missing Value Source: NWS Daily Summary

Daily Weather History Graph

Daily Weather History Graph

Search for Another Location

Airport:

Trip Planner

Search our weather history database for the weather conditions in past years. The results will help you decide how hot, cold, wet, or windy it might be!

Date:

Astronomy

Feb. 26, 2014 Rise Set
Actual Time 6:21 AM EST 5:23 PM EST
Civil Twilight 5:52 AM EST 5:52 PM EST
Nautical Twilight 5:18 AM EST 6:26 PM EST
Astronomical Twilight 4:45 AM EST 6:59 PM EST
Moon 4:10 AM EST (2/26) 2:29 PM EST (2/26)
Length of Visible Light 12h 00m
Length of Day
11h 01m
Waning Crescent, 10% of the Moon is Illuminated
Feb 26
Waning Crescent
Mar 1
New
Mar 8
First Quarter
Mar 16
Full
Mar 23
Last Quarter

Hourly Weather History & Observations

Time (EST) Temp. Windchill Dew Point Humidity Pressure Visibility Wind Dir Wind Speed Gust Speed Precip Events Conditions
12:53 AM 10.0 °F -0.9 °F 1.0 °F 67% 29.90 in 10.0 mi NNW 6.9 mph - N/A   Clear
1:53 AM 9.0 °F - -0.0 °F 67% 29.89 in 10.0 mi Calm Calm - N/A   Clear
2:53 AM 7.0 °F - 1.0 °F 77% 29.88 in 10.0 mi Calm Calm - N/A   Clear
3:53 AM 5.0 °F -2.1 °F -0.0 °F 80% 29.88 in 10.0 mi SSW 3.5 mph - N/A   Clear
4:53 AM 6.1 °F -0.9 °F -0.0 °F 76% 29.88 in 10.0 mi South 3.5 mph - N/A   Clear
5:53 AM 5.0 °F -4.1 °F -0.0 °F 80% 29.88 in 10.0 mi SSW 4.6 mph - N/A   Clear
6:53 AM 5.0 °F - 1.0 °F 84% 29.86 in 10.0 mi Calm Calm - N/A   Clear
7:53 AM 7.0 °F - 1.0 °F 77% 29.85 in 6.0 mi Calm Calm - N/A   Haze
8:53 AM 9.0 °F 2.4 °F 1.0 °F 70% 29.84 in 9.0 mi ESE 3.5 mph - N/A   Overcast
9:53 AM 14.0 °F 3.9 °F 1.9 °F 59% 29.82 in 10.0 mi SE 6.9 mph - N/A   Overcast
10:53 AM 19.9 °F 6.7 °F 5.0 °F 52% 29.80 in 10.0 mi South 13.8 mph 20.7 mph N/A   Mostly Cloudy
11:53 AM 21.9 °F 11.0 °F 3.9 °F 46% 29.76 in 10.0 mi SW 10.4 mph 19.6 mph N/A   Scattered Clouds
12:53 PM 24.1 °F 12.0 °F 3.9 °F 42% 29.73 in 10.0 mi SSW 13.8 mph 20.7 mph N/A   Partly Cloudy
1:53 PM 23.0 °F 13.1 °F 7.0 °F 50% 29.70 in 10.0 mi SW 9.2 mph - N/A   Overcast
2:17 PM 21.9 °F 10.4 °F 10.9 °F 63% 29.68 in 2.5 mi SW 11.5 mph 20.7 mph 0.00 in Snow Light Snow
2:23 PM 21.9 °F 12.5 °F 12.9 °F 68% 29.68 in 3.0 mi SW 8.1 mph 17.3 mph 0.00 in Snow Light Snow
2:53 PM 23.0 °F 13.9 °F 8.1 °F 53% 29.71 in 10.0 mi SW 8.1 mph 20.7 mph 0.00 in   Scattered Clouds
3:12 PM 21.0 °F 9.3 °F 12.0 °F 68% 29.69 in 2.5 mi WNW 11.5 mph - 0.00 in Snow Light Snow
3:18 PM 19.9 °F 11.1 °F 12.9 °F 74% 29.69 in 0.8 mi WSW 6.9 mph - 0.00 in Snow Light Snow
3:27 PM 21.0 °F 12.4 °F 12.9 °F 71% 29.69 in 2.0 mi WSW 6.9 mph - 0.00 in Snow Light Snow
3:30 PM 21.0 °F 13.4 °F 12.9 °F 71% 29.69 in 5.0 mi SW 5.8 mph - 0.00 in Snow Light Snow
3:53 PM 23.0 °F 11.7 °F 9.0 °F 55% 29.71 in 10.0 mi West 11.5 mph - 0.00 in   Overcast
4:21 PM 19.9 °F 7.3 °F 10.9 °F 68% 29.70 in 10.0 mi West 12.7 mph 25.3 mph N/A   Mostly Cloudy
4:34 PM 19.0 °F 4.5 °F 12.0 °F 74% 29.71 in 1.8 mi West 16.1 mph 23.0 mph 0.00 in Snow Light Snow
4:45 PM 19.0 °F 8.2 °F 12.9 °F 77% 29.72 in 0.8 mi West 9.2 mph - 0.00 in Snow Light Snow
4:53 PM 18.0 °F 6.9 °F 14.0 °F 84% 29.75 in 0.5 mi West 9.2 mph - 0.00 in Fog , Snow Snow
5:02 PM 18.0 °F 6.9 °F 14.0 °F 84% 29.72 in 1.0 mi WNW 9.2 mph - 0.00 in Snow Light Snow
5:06 PM 18.0 °F 8.7 °F 12.9 °F 81% 29.72 in 4.0 mi WNW 6.9 mph - 0.00 in Snow Light Snow
5:14 PM 18.0 °F 9.8 °F 12.9 °F 81% 29.73 in 10.0 mi West 5.8 mph - 0.00 in   Mostly Cloudy
5:53 PM 19.0 °F 10.0 °F 10.9 °F 71% 29.78 in 9.0 mi West 6.9 mph - 0.00 in   Overcast
6:53 PM 17.1 °F 4.3 °F -0.0 °F 47% 29.80 in 10.0 mi WNW 11.5 mph - N/A   Clear
7:53 PM 15.1 °F 3.3 °F -2.9 °F 45% 29.81 in 10.0 mi NW 9.2 mph - N/A   Clear
8:53 PM 12.9 °F 2.6 °F -4.0 °F 47% 29.83 in 10.0 mi WNW 6.9 mph - N/A   Clear
9:53 PM 12.0 °F 1.5 °F -6.0 °F 44% 29.83 in 10.0 mi NW 6.9 mph - N/A   Clear
10:53 PM 10.0 °F - -8.0 °F 44% 29.84 in 10.0 mi Calm Calm - N/A   Clear
11:53 PM 9.0 °F 2.4 °F -8.0 °F 46% 29.83 in 10.0 mi NE 3.5 mph - N/A   Clear